STARLINK-36437, 67465

Orbit data source: Space-Track

STARLINK-36437, 67465 is a payload satellite owned by SpaceX/Seattle (US) in LEO that was launched on Wed, 14 Jan 2026 UTC via an FALCON 9 launch vehicle from the Air Force Eastern Test Range (AFETR). Payload-class satellites include a variety of spacecraft equipped with specific instruments for various scientific and technological missions. These include communications satellites like Starlink; space stations such as the ISS; scientific satellites like the Hubble; Earth observation satellites from companies like Planet Labs, Umbra, and HawkEye 360; GPS; miniature CubeSats for education and research; and military/defense satellites.

Loading next visibility...
Identifier
67465, 2026-008W
Orbit
LEO
Country
Flag of USUS
Related business
Manufacturer
SpaceX/Seattle
Mission
Operational spacecraft
Bus & Motor
STARLINK V2MO, Unknown motor
Mass
575 kg wet, ~530 kg dry
Launch date (UTC)
2026-01-14 (2 months ago)
Launch vehicle
FALCON 9
Launch site
Air Force Eastern Test Range (AFETR)
Object type
Payload
Rocket body
Debris
Shape & HBR
Unknown shape, 17.7 m
Radar Cross Section
RCS unknown

Expand to show TLE details & history
Last TLE update: 19 hours ago

TLE from 19 hours ago
0 STARLINK-36437
1 67465U 26008W   26062.53506896  .00042658  00000-0  15492-2 0  9990
2 67465  42.9946 239.7363 0001095 186.1085 173.9754 15.27612408  8630
Epoch: 2026-03-03T12:50Z
TLE epoch observation values (Epoch: 2026-03-03T12:50:29.958Z)
Latitude
0.00004°
Longitude
-114.20122°
Altitude
483.474 km
Speed
7.625 km/s
True Right ascension
15h 58m 56s
True Declination
0° 00' 00"
Sunlit
Object was in daylight at epoch
Visualization orbit readout
Latitude
Unknown
Longitude
Unknown
Altitude
Unknown
Speed
Unknown
Apparent Right ascension
Unknown
Apparent Declination
Unknown
Sunlit
N/A
Visualization observer readout
Local Sidereal Time
11:18:20
Azimuth
Unknown
Elevation
Unknown
Doppler factor
Unknown
Orbital elements
Apogee altitude
485.65 km
Perigee altitude
484.147 km
Semi-major axis
6,863.035 km
Eccentricity
0.00011
Inclination
42.9946°
RAAN
239.7363°
Arg. of periapsis
186.1085°
True anomaly
173.97672°
Mean anomaly
173.9754°
Eccentric anomaly
173.97606°
Mean motion
3.81741 °/min
Orbital period
94.3 mins
BSTAR
0.0015492
Loading maneuver chart data...
Computing Atmospheric mass density...
Loading historical data...
Loading historical data...
Loading historical data...
Loading historical data...
Loading historical data...
Loading historical data...
Loading historical data...

Documentation

Showing up to 5 results
|